Regional Weather Roundup
Issued by NWS

Home | Current Version | Previous Version | Graphics & Text | Print | Product List | Glossary On
Versions: 1 2 3 4 5 6 7 8 9 10 11 12 13 14 15 16 17 18 19 20 21 22 23 24 25 26 27 28 29 30 31 32 33 34 35 36 37 38 39 40 41 42 43 44 45 46 47 48 49 50
635
ASUS43 KIND 260709
RWRIN

WEATHER ROUNDUP FOR INDIANA
NATIONAL WEATHER SERVICE INDIANAPOLIS IN
300 AM EDT SAT MAY 26 2018

NOTE: "FAIR" INDICATES FEW OR NO CLOUDS BELOW 12,000 FEET WITH NO
SIGNIFICANT WEATHER AND/OR OBSTRUCTIONS TO VISIBILITY.

* - STATION DOES NOT REPORT WEATHER SUCH AS PRECIPITATION OR FOG.

+ - STATION NOT QUALITY CONTROLLED BY THE NATIONAL WEATHER SERVICE.
    USE DATA WITH CAUTION...ESPECIALLY DEWPOINT AND RELATIVE
    HUMIDITY OBSERVATIONS.

INZ001>003-010>013-019-020-260800-
NORTHWEST INDIANA

CITY           SKY/WX    TMP DP  RH WIND       PRES   REMARKS
GARY /AIRPORT/ FAIR      72  66  81 CALM      29.78F
KNOX *+        MOCLDY    70  64  83 CALM      29.79F
LA PORTE +     LGT RAIN  71  64  77 SW5       29.80F
MICHIGAN CITY+ MOCLDY    66  63  88 SE3       29.79F
MONTICELLO +   FAIR      69  67  95 S3        29.79F
RENSSELAER +   CLOUDY    70  63  78 S5        29.79F
VALPARAISO     FAIR      71  67  87 CALM      29.79F

$$

LMZ046-743>745-260800-
SOUTHERN LAKE MICHIGAN

STATION/POSITION TIME  TEMP    WIND        PRES    WAVE
                       AIR SEA DIR/SP/G            HT
                 (UTC) (F)     (DEG/KT/KT) (MB)    (FT)
BURNS HARBOR     0640   72     190/  4/  7 1009.1F
MICHIGAN CITY    0640   67     180/  2/  3   N/A
5NW MICH CITY    0700   63 60  140/  2/  4   N/A     1

$$

INZ004-005-014>016-021>024-260800-
NORTH CENTRAL INDIANA

CITY           SKY/WX    TMP DP  RH WIND       PRES   REMARKS
GOSHEN         CLOUDY    71  61  70 W6        29.80F
LOGANSPORT +   RAIN      70  64  83 SW5       29.83S
PERU/GRISSOM   CLOUDY    72  68  86 W3        29.81F
ROCHESTER +    FAIR      73  64  73 CALM      29.82F
SOUTH BEND     CLOUDY    70  63  78 NW5       29.80F
WARSAW +       MOCLDY    72  61  68 W6        29.81F

$$

INZ006>009-017-018-025>027-260800-
NORTHEAST INDIANA

CITY           SKY/WX    TMP DP  RH WIND       PRES   REMARKS
ANGOLA *+      FAIR      72  59  64 SW6       29.80F
AUBURN +       FAIR      70  59  68 SW3       29.82S
FORT WAYNE     MOCLDY    72  60  66 SW7       29.82F
HUNTINGTON +   FAIR      72  61  68 W5        29.82F
KENDALLVILLE + FAIR      70  54  56 SW7       29.82S

$$

INZ028-029-035-036-043>045-051>053-260800-
WEST CENTRAL INDIANA

CITY           SKY/WX    TMP DP  RH WIND       PRES   REMARKS
CRAWFORDSVL +  FAIR      69  61  77 SW5       29.84S
GREENCASTLE +  FAIR      70  63  78 CALM      29.85S
LAFAYETTE      FAIR      69  69 100 S5        29.79F FOG
TERRE HAUTE    FAIR      69  63  81 SW3       29.84S

$$

INZ030>032-037>040-046>048-054>057-064-065-260800-
CENTRAL INDIANA

CITY           SKY/WX    TMP DP  RH WIND       PRES   REMARKS
ANDERSON       FAIR      71  60  67 SW3       29.85S
FISHERS *+     MOCLDY   N/A N/A N/A SW3       29.84F
FRANKFORT +    FAIR     N/A N/A N/A CALM      29.84F
GREENWOOD *+   FAIR      73  65  76 SW5       29.85F
INDIANAPOLIS   CLOUDY    72  66  81 S7        29.84F
-EAGLE CREEK   FAIR      75  65  70 VRB3      29.83F
KOKOMO +       CLOUDY    73  65  75 W6        29.84S
MARION +       MOCLDY    73  62  68 CALM      29.84S
MT COMFORT *+  FAIR      73  68  83 SW3       29.85S
SHELBYVILLE    FAIR      73  62  68 S6        29.84F
ZIONSVILLE +   FAIR      73  65  77 SW7       29.85S

$$

INZ033-034-041-042-049-050-058-059-260800-
EAST CENTRAL INDIANA

CITY           SKY/WX    TMP DP  RH WIND       PRES   REMARKS
MUNCIE         LGT RAIN  75  60  59 SW6       29.84F
RICHMOND +     FAIR      68  61  77 SW6       29.87S

$$

INZ060-061-067>069-081>083-085>088-260800-
SOUTHWEST INDIANA

CITY           SKY/WX    TMP DP  RH WIND       PRES   REMARKS
EVANSVILLE     FAIR      72  69  90 SW6       29.86F
HUNTINGBURG +  FAIR      71  66  84 S7        29.87F
WASHINGTON +   FAIR      71  65  81 S3        29.85F

$$

INZ062-063-066-070>080-084-089>092-260800-
SOUTH CENTRAL AND SOUTHEAST INDIANA

CITY           SKY/WX    TMP DP  RH WIND       PRES   REMARKS
BATESVILLE +   MOCLDY    70  63  78 CALM      29.86S
BEDFORD +      FAIR      72  63  73 CALM      29.85F
BLOOMINGTON    FAIR      72  65  78 SW6       29.85F
FRENCH LICK *+ FAIR      70  59  68 CALM      29.87F
MADISON *+     FAIR      70  64  83 CALM      29.88F
NORTH VERNON + FAIR      70  63  78 S5        29.85F
SEYMOUR +      FAIR      72  63  73 S3        29.84F

$$





USA.gov is the U.S. government's official web portal to all federal, state and local government web resources and services.